TimeCDT,TemperatureF,Dew PointF,Humidity,Sea Level PressureIn,VisibilityMPH,Wind Direction,Wind SpeedMPH,Gust SpeedMPH,PrecipitationIn,Events,Conditions,WindDirDegrees,DateUTC
12:15 AM,50.0,33.8,54,30.10,0.5,SE,4.6,-,N/A,,Unknown,140,2013-05-13 05:15:00
12:35 AM,50.0,33.8,54,30.10,1.5,SE,5.8,-,N/A,,Clear,140,2013-05-13 05:35:00
12:55 AM,48.2,33.8,58,30.10,10.0,SE,5.8,-,N/A,,Clear,140,2013-05-13 05:55:00
1:15 AM,48.2,35.6,62,30.10,10.0,SSE,4.6,-,N/A,,Clear,150,2013-05-13 06:15:00
1:35 AM,51.8,35.6,54,30.10,10.0,South,5.8,-,N/A,,Clear,170,2013-05-13 06:35:00
1:55 AM,51.8,37.4,58,30.09,10.0,South,5.8,-,N/A,,Clear,170,2013-05-13 06:55:00
2:15 AM,53.6,37.4,54,30.09,10.0,South,5.8,-,N/A,,Clear,180,2013-05-13 07:15:00
2:35 AM,53.6,39.2,58,30.09,10.0,South,6.9,-,N/A,,Clear,180,2013-05-13 07:35:00
2:55 AM,53.6,39.2,58,30.09,10.0,South,5.8,-,N/A,,Clear,190,2013-05-13 07:55:00
3:15 AM,53.6,39.2,58,30.09,10.0,South,9.2,-,N/A,,Clear,190,2013-05-13 08:15:00
3:35 AM,51.8,37.4,58,30.08,10.0,South,4.6,-,N/A,,Clear,190,2013-05-13 08:35:00
3:55 AM,51.8,39.2,62,30.08,10.0,SSW,5.8,-,N/A,,Clear,210,2013-05-13 08:55:00
4:15 AM,51.8,39.2,62,30.07,10.0,SSW,9.2,-,N/A,,Clear,200,2013-05-13 09:15:00
4:35 AM,51.8,39.2,62,30.07,10.0,SSW,5.8,-,N/A,,Clear,200,2013-05-13 09:35:00
4:55 AM,51.8,39.2,62,30.06,10.0,South,9.2,-,N/A,,Clear,190,2013-05-13 09:55:00
5:15 AM,51.8,39.2,62,30.06,10.0,South,6.9,-,N/A,,Clear,190,2013-05-13 10:15:00
5:35 AM,51.8,39.2,62,30.06,10.0,SSW,6.9,-,N/A,,Clear,210,2013-05-13 10:35:00
5:55 AM,51.8,37.4,58,30.06,10.0,SSW,6.9,-,N/A,,Clear,200,2013-05-13 10:55:00
6:15 AM,51.8,37.4,58,30.06,10.0,South,9.2,-,N/A,,Clear,190,2013-05-13 11:15:00
6:35 AM,51.8,39.2,62,30.07,10.0,South,5.8,-,N/A,,Clear,190,2013-05-13 11:35:00
6:55 AM,51.8,39.2,62,30.06,10.0,South,8.1,-,N/A,,Clear,180,2013-05-13 11:55:00
7:15 AM,53.6,39.2,58,30.07,10.0,South,9.2,-,N/A,,Clear,170,2013-05-13 12:15:00
7:35 AM,55.4,39.2,54,30.07,10.0,South,10.4,-,N/A,,Clear,180,2013-05-13 12:35:00
7:55 AM,55.4,41.0,58,30.07,10.0,South,10.4,-,N/A,,Clear,180,2013-05-13 12:55:00
8:15 AM,55.4,41.0,58,30.06,10.0,South,11.5,-,N/A,,Clear,180,2013-05-13 13:15:00
8:35 AM,57.2,42.8,59,30.06,10.0,South,9.2,-,N/A,,Clear,180,2013-05-13 13:35:00
8:55 AM,60.8,42.8,52,30.05,10.0,South,12.7,16.1,N/A,,Clear,190,2013-05-13 13:55:00
9:15 AM,60.8,42.8,52,30.05,10.0,SSW,15.0,-,N/A,,Clear,200,2013-05-13 14:15:00
9:35 AM,62.6,44.6,52,30.04,10.0,SSW,12.7,-,N/A,,Clear,200,2013-05-13 14:35:00
9:55 AM,64.4,44.6,49,30.03,10.0,South,11.5,16.1,N/A,,Clear,190,2013-05-13 14:55:00
10:15 AM,64.4,44.6,49,30.03,10.0,South,13.8,-,N/A,,Clear,170,2013-05-13 15:15:00
10:35 AM,66.2,46.4,49,30.02,10.0,South,13.8,-,N/A,,Clear,170,2013-05-13 15:35:00
10:55 AM,69.8,46.4,43,30.02,10.0,SSW,8.1,-,N/A,,Clear,200,2013-05-13 15:55:00
11:15 AM,69.8,48.2,46,30.02,10.0,South,9.2,-,N/A,,Clear,190,2013-05-13 16:15:00
11:35 AM,71.6,48.2,43,30.01,10.0,SSW,11.5,16.1,N/A,,Clear,200,2013-05-13 16:35:00
11:55 AM,73.4,48.2,41,30.01,10.0,SSW,12.7,-,N/A,,Clear,210,2013-05-13 16:55:00
12:15 PM,75.2,48.2,38,30.00,10.0,South,15.0,23.0,N/A,,Clear,190,2013-05-13 17:15:00
12:35 PM,78.8,48.2,34,29.98,10.0,SSW,18.4,-,N/A,,Clear,200,2013-05-13 17:35:00
12:55 PM,80.6,48.2,32,29.97,10.0,SSW,16.1,24.2,N/A,,Clear,200,2013-05-13 17:55:00
1:15 PM,82.4,44.6,26,29.96,10.0,South,13.8,26.5,N/A,,Clear,190,2013-05-13 18:15:00
1:35 PM,82.4,44.6,26,29.95,10.0,SSW,16.1,24.2,N/A,,Clear,200,2013-05-13 18:35:00
1:55 PM,84.2,44.6,25,29.95,10.0,SSW,18.4,27.6,N/A,,Clear,200,2013-05-13 18:55:00
2:15 PM,84.2,44.6,25,29.94,10.0,SSW,17.3,24.2,N/A,,Clear,200,2013-05-13 19:15:00
2:35 PM,86.0,44.6,23,29.93,10.0,SSW,20.7,26.5,N/A,,Clear,200,2013-05-13 19:35:00
3:35 PM,87.8,44.6,22,29.91,10.0,SSW,16.1,27.6,N/A,,Clear,200,2013-05-13 20:35:00
3:55 PM,87.8,44.6,22,29.90,10.0,SW,16.1,25.3,N/A,,Clear,220,2013-05-13 20:55:00
4:15 PM,87.8,44.6,22,29.89,10.0,SW,17.3,24.2,N/A,,Clear,230,2013-05-13 21:15:00
4:35 PM,87.8,44.6,22,29.89,10.0,SW,19.6,25.3,N/A,,Clear,230,2013-05-13 21:35:00
4:55 PM,87.8,44.6,22,29.88,10.0,SSW,17.3,27.6,N/A,,Clear,200,2013-05-13 21:55:00
5:15 PM,87.8,46.4,24,29.87,10.0,SW,13.8,23.0,N/A,,Clear,220,2013-05-13 22:15:00
5:35 PM,87.8,46.4,24,29.87,10.0,SSW,13.8,21.9,N/A,,Clear,210,2013-05-13 22:35:00
5:55 PM,87.8,46.4,24,29.86,10.0,SSW,16.1,-,N/A,,Clear,210,2013-05-13 22:55:00
6:35 PM,86.0,48.2,27,29.85,10.0,SSW,15.0,-,N/A,,Clear,200,2013-05-13 23:35:00
7:15 PM,84.2,50.0,30,29.84,10.0,SSW,13.8,20.7,N/A,,Clear,200,2013-05-14 00:15:00
7:35 PM,84.2,50.0,30,29.85,10.0,SSW,12.7,17.3,N/A,,Clear,210,2013-05-14 00:35:00
7:55 PM,82.4,51.8,35,29.85,10.0,SSW,9.2,-,N/A,,Clear,200,2013-05-14 00:55:00
8:15 PM,82.4,51.8,35,29.85,10.0,SSW,9.2,-,N/A,,Clear,210,2013-05-14 01:15:00
8:35 PM,80.6,51.8,37,29.85,10.0,SSW,9.2,-,N/A,,Clear,200,2013-05-14 01:35:00
8:55 PM,78.8,51.8,39,29.86,10.0,SSW,12.7,-,N/A,,Clear,200,2013-05-14 01:55:00
9:15 PM,78.8,51.8,39,29.86,10.0,SSW,12.7,-,N/A,,Clear,200,2013-05-14 02:15:00
9:35 PM,77.0,51.8,41,29.86,10.0,SSW,11.5,-,N/A,,Clear,200,2013-05-14 02:35:00
9:55 PM,75.2,53.6,47,29.87,10.0,SSW,9.2,-,N/A,,Clear,210,2013-05-14 02:55:00
10:15 PM,75.2,53.6,47,29.87,10.0,SSW,9.2,16.1,N/A,,Clear,210,2013-05-14 03:15:00
10:35 PM,73.4,53.6,50,29.87,10.0,SSW,8.1,-,N/A,,Clear,210,2013-05-14 03:35:00
10:55 PM,73.4,51.8,47,29.87,10.0,SW,9.2,-,N/A,,Clear,230,2013-05-14 03:55:00
11:15 PM,73.4,51.8,47,29.87,10.0,SW,9.2,-,N/A,,Clear,220,2013-05-14 04:15:00
11:35 PM,71.6,51.8,50,29.87,10.0,SW,5.8,-,N/A,,Clear,230,2013-05-14 04:35:00
11:55 PM,71.6,51.8,50,29.87,10.0,SW,4.6,-,N/A,,Clear,220,2013-05-14 04:55:00